Weather Roundup
Issued by NWS

Home | Current Version | Previous Version | Text Only | Print | Product List | Glossary On
Versions: 1 2 3 4 5 6 7 8 9 10 11 12 13 14 15 16 17 18 19 20 21 22 23 24 25 26 27 28 29 30 31 32 33 34 35 36 37 38 39 40 41 42 43 44 45 46 47 48 49 50
683
NZUS93 KARX 250610
HRRWXR

CURRENT HOURLY OBSERVATIONS ACROSS
MUCH OF THE UPPER MISSISSIPPI VALLEY
NATIONAL WEATHER SERVICE LA CROSSE WI
100 AM CDT TUE JUL 25 2017


...SOUTHEAST MINNESOTA...


CITY           SKY/WX    TMP DP  RH WIND       PRES   REMARKS
ROCHESTER      CLEAR     60  59  96 SE8       30.09S
ROCHESTER/MAYO FAIR      64  61  91 E6        30.09S
WINONA         CLEAR     63  57  82 SE3       30.10R
AUSTIN         CLEAR     63  57  82 SE3       30.08R
ALBERT LEA     CLEAR     66  61  82 SE12      30.07R
DODGE CENTER   CLEAR     61  57  88 SE8       30.08S
PRESTON        CLEAR     62  57  84 SE8       30.10S
OWATONNA       CLEAR     64  61  88 SE8       30.07R
FARIBAULT      CLEAR     66  61  82 SE7       30.06S
$$

...ELSEWHERE IN MINNESOTA...


CITY           SKY/WX    TMP DP  RH WIND       PRES   REMARKS
MINNEAPOLIS    CLOUDY    68  60  75 SE13      30.03F
INTNL FALLS    CLEAR     58  54  86 SE3       29.99R
DULUTH         PTCLDY    56  55  97 E8        30.04F
RED WING       PTCLDY    66  57  72 SE6       30.06R
REDWOOD FALLS  CLOUDY    69  62  78 SE12      30.00R
MANKATO        PTCLDY    66  62  87 SE12      30.05R
WORTHINGTON    CLOUDY    69  63  81 SE14      29.99R
FAIRMONT       CLEAR     66  63  90 SE13      30.03R
$$

...SOUTHWEST WISCONSIN...


CITY           SKY/WX    TMP DP  RH WIND       PRES   REMARKS
LA CROSSE      PTCLDY    65  61  87 E7        30.09S
PRAIRIE DU CHI CLEAR     61  58  92 CALM      30.11R
BOSCOBEL       FOG       59  58  96 CALM      30.13R VSB 1/2
LONE ROCK      CLEAR     60  59  96 CALM      30.13R
PLATTEVILLE    CLEAR     62  61  98 E7        30.14R
FORT MC COY    CLOUDY    53  53 100 CALM      30.12S
CAMP DOUGLAS   FOG       54  54 100 CALM      30.13R VSB 1
MAUSTON-NEW LI CLEAR     59  59  99 CALM      30.13R
VIROQUA        FAIR      61  60  94 CALM      30.13S
WIS DELLS      CLEAR     58  54  86 CALM      30.14R
$$

...ELSEWHERE IN WISCONSIN...


CITY           SKY/WX    TMP DP  RH WIND       PRES   REMARKS
MILWAUKEE      CLEAR     61  57  87 CALM      30.14R
MADISON        CLOUDY    61  53  75 CALM      30.13R
GREEN BAY      CLEAR     56  55  97 CALM      30.14R
EAU CLAIRE     PTCLDY    63  59  87 SE7       30.08S
BLACK RVR FLS  FAIR      52  52 100 CALM      30.11S FOG
MEDFORD        PTCLDY    58  55  88 SE3       30.14R
WAUSAU         PTCLDY    59  52  77 E3        30.13R
WIS RAPIDS     PTCLDY    61  55  81 S5        30.15R
MARSHFIELD     CLEAR     59  53  80 CALM      30.13R
RICE LAKE      MOCLDY    61  57  89 SE5       30.10R
$$

...NORTHEAST IOWA...


CITY           SKY/WX    TMP DP  RH WIND       PRES   REMARKS
WATERLOO       CLEAR     64  60  87 SE6       30.08R
DUBUQUE        CLEAR     62  58  86 SE6       30.13R
DECORAH        PTCLDY    63  59  88 SE7       30.10S
MASON CITY     CLEAR     64  62  93 SE10      30.09R
CHARLES CITY   CLEAR     64  63  94 SE7G13    30.09S
OELWEIN          N/A    N/A N/A N/A MISG        N/A
$$

...ELSEWHERE IN IOWA...


CITY           SKY/WX    TMP DP  RH WIND       PRES   REMARKS
DES MOINES     CLEAR     71  65  81 SE12      30.05R
IOWA CITY      CLEAR     66  62  87 SE3       30.12R
FORT DODGE     CLEAR     68  63  83 SE8G16    30.05S
MARSHALLTOWN   CLEAR     65  63  93 SE9       30.08R
CEDAR RAPIDS   CLEAR     61  61 100 E6        30.10R
$$

...NORTHERN ILLINOIS...


CITY           SKY/WX    TMP DP  RH WIND       PRES   REMARKS
CHICAGO-OHARE  PTCLDY    66  59  78 NE5       30.13R
CHICAGO-MIDWAY PTCLDY    69  61  75 NE8       30.13R
MOLINE         CLEAR     63  59  87 E6        30.11R
ROCKFORD       CLEAR     62  59  90 SE6       30.15R
PEORIA         CLEAR     67  62  84 E8        30.12R
$$

NOTE: "FAIR" INDICATES FEW OR NO CLOUDS BELOW 12,000 FEET WITH NO
SIGNIFICANT WEATHER AND/OR OBSTRUCTIONS TO VISIBILITY. WIND
SPEEDS ARE IN MILES-PER-HOUR.




USA.gov is the U.S. government's official web portal to all federal, state and local government web resources and services.